Location: Observatory
(52.1446°N, 0.4624°W)
Time: 02:06:43
(UTC+01:00)

ISS - Pass Details

Date: 21 May 2018
Orbit: 402 x 406 km, 51.6° (Epoch: 21 June)

Event Time Altitude Azimuth Distance (km) Brightness Sun altitude
Rises 22:45:38 0° 229° (SW) 2,314 -0.1 -12.0°
Reaches altitude 10° 22:47:49 10° 220° (SW) 1,456 -1.2 -12.1°
Maximum altitude 22:50:48 34° 154° (SSE) 687 -3.2 -12.4°
Drops below altitude 10° 22:53:48 10° 87° (E) 1,460 -1.3 -12.6°
Sets 22:55:59 0° 78° (ENE) 2,322 -0.2 -12.8°
